This demonstration page uses our WeatherBlox Daily Observations layout. Learn more.

38.88101, -77.10428

Hourly Observations for March 14, 2016

Temp ( °F °C ) Dew Point ( °F °C ) Humidity (%) Winds ( mph kmh ) Pressure ( in mb ) Visibility ( mi km ) Precip ( " mm )
12:29 am 00:29 Cloudy 50 10 46 7.8 86 86 NE 6 9 29.97 1015 10 16.09344 0.001 0.001
12:52 am 00:52 Cloudy 50 10 46 7.8 86 86 NE 7 11 29.97 1015 10 16.09344 0.001 0.001
1:52 am 01:52 Cloudy with Light Rain 50 10 47 8.3 89 89 NNE 7 11 29.97 1015 5 8.04672 0.001 0.001
2:20 am 02:20 Cloudy with Heavy Rain 48 9 46 8 94 94 N 7 11 29.97 1015 3 4.828032 0 0
2:24 am 02:24 Cloudy with Heavy Rain 48 9 46 8 94 94 N 7 11 29.97 1015 2 3.218688 0 0
2:30 am 02:30 Cloudy with Heavy Rain 48 9 46 8 94 94 NNE 8 13 29.94 1014 3 4.828032 0 0
2:52 am 02:52 Cloudy with Light Rain 49 9.4 47 8.3 93 93 N 9 15 29.97 1015 6 9.656064 0.19 4.826
3:45 am 03:45 Cloudy with Light Drizzle 49 9.4 47 8.3 93 93 NNE 8 13 29.94 1014 2.5 4.02336 0.001 0.001
3:52 am 03:52 Cloudy with Light Drizzle 49 9.4 47 8.3 93 93 N 9 15 29.94 1014 2.5 4.02336 0.001 0.001
4:17 am 04:17 Cloudy with Light Drizzle 49 9.4 47 8.3 93 93 N 10 17 29.94 1014 2.5 4.02336 0.001 0.001
4:30 am 04:30 Cloudy with Light Drizzle 48 9 46 8 94 94 NNE 10 17 29.94 1014 4 6.437376 0 0
4:52 am 04:52 Cloudy with Light Drizzle 49 9.4 47 8.3 93 93 N 12 19 29.94 1014 9 14.484096 0.001 0.001
5:19 am 05:19 Cloudy with Light Drizzle 49 9.4 47 8.3 93 93 N 12 19 29.94 1014 5 8.04672 0.001 0.001
5:52 am 05:52 Cloudy with Light Drizzle 49 9.4 47 8.3 93 93 NNE 10 17 29.94 1014 4 6.437376 0.001 0.001
6:52 am 06:52 Cloudy with Light Drizzle 49 9.4 48 8.9 97 97 NNE 12 19 29.94 1014 3 4.828032 0.001 0.001
7:52 am 07:52 Cloudy with Light Drizzle 50 10 48 8.9 93 93 NNE 12 19 29.94 1014 5 8.04672 0.001 0.001
8:52 am 08:52 Cloudy with Light Drizzle 50 10 47 8.3 89 89 NE 14 22 29.97 1015 5 8.04672 0.001 0.001
9:52 am 09:52 Cloudy 50 10 48 8.9 93 93 NNE 10 17 29.97 1015 7 11.265408 0.001 0.001
10:52 am 10:52 Cloudy with Mist and Fog 50 10 48 8.9 93 93 NNE 10 17 29.97 1015 6 9.656064 0 0
11:52 am 11:52 Cloudy with Light Drizzle 51 10.6 49 9.4 92 92 NNE 8 13 29.97 1015 4 6.437376 0.001 0.001
12:39 pm 12:39 Cloudy 52 11.1 49 9.4 89 89 NNE 10 17 29.94 1014 7 11.265408 0.001 0.001
12:52 pm 12:52 Cloudy 52 11.1 49 9.4 89 89 NNE 10 17 29.94 1014 7 11.265408 0.001 0.001
1:52 pm 13:52 Cloudy 53 11.7 49 9.4 86 86 NE 13 20 29.94 1014 10 16.09344 0 0
2:14 pm 14:14 Cloudy 54 12 48 9 82 82 NE 14 22 29.91 1013 10 16.09344 0 0
2:52 pm 14:52 Cloudy 53 11.7 49 9.4 86 86 NE 12 19 29.91 1013 10 16.09344 0 0
3:52 pm 15:52 Cloudy 52 11.1 48 8.9 86 86 NNE 12 19 29.91 1013 10 16.09344 0 0
4:52 pm 16:52 Cloudy 52 11.1 49 9.4 89 89 NE 12 19 29.88 1012 10 16.09344 0 0
5:07 pm 17:07 Cloudy 52 11.1 49 9.4 89 89 NE 10 17 29.88 1012 9 14.484096 0 0
5:43 pm 17:43 Cloudy 52 11.1 48 8.9 86 86 NE 10 17 29.88 1012 10 16.09344 0 0
5:52 pm 17:52 Cloudy 52 11.1 48 8.9 86 86 NNE 13 20 29.88 1012 10 16.09344 0 0
6:52 pm 18:52 Cloudy 52 11.1 48 8.9 86 86 NE 9 15 29.88 1012 10 16.09344 0 0
7:10 pm 19:10 Cloudy with Light Drizzle 52 11 48 9 88 88 NE 12 19 29.88 1012 4 6.437376 0 0
7:17 pm 19:17 Cloudy 51 10.6 48 8.9 89 89 NE 14 22 29.88 1012 9 14.484096 0.001 0.001
7:33 pm 19:33 Cloudy with Light Drizzle 50 10 48 8.9 93 93 NE 13 20 29.88 1012 5 8.04672 0.001 0.001
7:44 pm 19:44 Cloudy with Light Drizzle 50 10 48 9 94 94 NE 12 19 29.88 1012 5 8.04672 0 0
7:52 pm 19:52 Cloudy with Light Drizzle 50 10 47 8.3 89 89 NNE 12 19 29.88 1012 5 8.04672 0.001 0.001
8:20 pm 20:20 Cloudy 48 9 46 8 94 94 NE 13 20 29.88 1012 7 11.265408 0 0
8:39 pm 20:39 Cloudy 49 9.4 47 8.3 93 93 NE 10 17 29.88 1012 9 14.484096 0.001 0.001
8:44 pm 20:44 Cloudy 48 9 46 8 94 94 NNE 13 20 29.91 1013 9 14.484096 0 0
8:52 pm 20:52 Cloudy 49 9.4 46 7.8 90 90 NE 12 19 29.88 1012 10 16.09344 0.001 0.001
9:36 pm 21:36 Cloudy 48 8.9 45 7.2 89 89 NE 13 20 29.88 1012 10 16.09344 0 0
9:46 pm 21:46 Cloudy 48 9 46 8 94 94 NE 13 20 29.88 1012 10 16.09344 0 0
9:52 pm 21:52 Cloudy 48 8.9 45 7.2 89 89 NE 13 20 29.88 1012 10 16.09344 0 0
10:19 pm 22:19 Cloudy 48 8.9 45 7.2 89 89 NE 13 20 29.88 1012 10 16.09344 0 0
10:52 pm 22:52 Cloudy with Light Drizzle 48 8.9 45 7.2 89 89 NE 16 26 29.85 1011 7 11.265408 0.001 0.001
11:12 pm 23:12 Cloudy with Light Drizzle 48 9 45 7 87 87 NE 9 15 29.85 1011 7 11.265408 0 0
11:52 pm 23:52 Cloudy 48 8.9 45 7.2 89 89 ENE 8 13 29.88 1012 10 16.09344 0.001 0.001

Powered by AerisWeather